Retour au catalogue

CZ-3C DEB

LostGTO
NORAD 40177·DEBRIS·🇨🇳 China

Lancé Oct 31, 2010 depuis Xichang Satellite Launch Center

Loading…

TLE

PériméSource: Space-Track

Époque: Aug 9, 2024, 05:26 UTC

1 40177U 10057AF  24222.22662840  .00001933  00000-0  21563-1 0  9998
2 40177  17.6309 314.2845 7214568 223.2477  49.5391  2.21111102 91433

Suivez CZ-3C DEB en temps réel avec AllMySat

Download on the App Store